Regional Weather Roundup
Issued by NWS

Home | Current Version | Previous Version | Graphics & Text | Print | Product List | Glossary On
Versions: 1 2 3 4 5 6 7 8 9 10 11 12 13 14 15 16 17 18 19 20 21 22 23 24 25 26 27 28 29 30 31 32 33 34 35 36 37 38 39 40 41 42 43 44 45 46 47 48 49 50
000
ASUS43 KMPX 281701
RWRMN
WEATHER ROUNDUP FOR MINNESOTA
NATIONAL WEATHER SERVICE TWIN CITIES/CHANHASSEN MN
1200 PM CDT SUN AUG 28 2016


NOTE: "FAIR" INDICATES FEW OR NO CLOUDS BELOW 12,000 FEET WITH NO
SIGNIFICANT WEATHER AND/OR OBSTRUCTIONS TO VISIBILITY. N/A MEANS
CURRENT SKY AND/OR WEATHER CONDITIONS ARE NOT AVAILABLE.

MNZ060>063-068>070-281800-
   Twin Cities Metro

CITY           SKY/WX    TMP DP  RH WIND       PRES   REMARKS
TWIN CITIES    CLOUDY    78  67  68 S13       30.13F
ST PAUL        CLOUDY    75  68  78 SE9       30.14S
CRYSTAL        CLOUDY    76  65  68 VRB5      30.12S
BLAINE         CLOUDY    72  72 100 E6        30.14S
LAKEVILLE      MOSUNNY   77  70  78 S10       30.14F
EDEN PRAIRIE   CLOUDY    81  70  69 S13G21    30.11F
LAKEVILLE      MOSUNNY   77  70  78 S10       30.14F
SOUTH ST PAUL  SUNNY     76  70  82 SE7       30.14F
LAKE ELMO      CLOUDY    72  72 100 SE8       30.15F
$$
MNZ001>005-007-008-013>017-022>024-027-028-281800-
   Northwest Minnesota

CITY           SKY/WX    TMP DP  RH WIND       PRES   REMARKS
BEMIDJI        PTSUNNY   69  63  81 SE8       30.11F
HALLOCK        SUNNY     77  64  65 S15       29.98F
ROSEAU         SUNNY     73  66  78 SE13      30.05S
WARROAD        CLOUDY    68  64  88 S13       30.08S
THIEF RVR FALL SUNNY     76  63  64 SE16      30.04F
CROOKSTON      SUNNY     73  64  73 S15       30.02R
FOSSTON        SUNNY     72  70  94 SE9       30.06F
DETROIT LAKES  SUNNY     72  64  78 SE13      30.07F
MOORHEAD       CLOUDY    75  63  64 SE13G20   30.01F
PARK RAPIDS    SUNNY     74  61  63 SE13      30.11S
MAHNOMEN       FAIR      74  62  65 SE13      30.04F
$$
MNZ006-009>011-018-025>026-281800-
   North Central Minnesota

CITY           SKY/WX    TMP DP  RH WIND       PRES   REMARKS
BAUDETTE       CLOUDY    64  62  93 SE10      30.10S
FLAG ISLAND    CLOUDY    63  61  94 SE3       30.08S FOG
INTL FALLS     CLOUDY    63  60  90 SE6       30.14S
WASKISH          N/A     66  64  94 SE8       30.11S
BIG FORK       CLOUDY    66  63  88 S3        30.14F
LONGVILLE      SUNNY     73  63  68 S9        30.12S
GRAND RAPIDS   CLOUDY    65  63  93 SE6       30.17S
ORR            CLOUDY    61  59  94 SE3       30.14S
COOK           CLOUDY    63  61  94 SE3       30.17S
WALKER         FAIR      71  62  72 E6        30.11F
$$
MNZ012-019>021-037-281800-
   Northeast Minnesota

CITY           SKY/WX    TMP DP  RH WIND       PRES   REMARKS
DULUTH         CLOUDY    67  61  81 S7        30.18S
ELY            CLOUDY    61  57  88 CALM      30.18S
HIBBING        CLOUDY    61  60  97 SE5       30.17S
EVELETH        CLOUDY    63  61  94 S6        30.18S
DULUTH HARBOR  CLOUDY    64  61  88 CALM      30.19R
TWO HARBORS    CLOUDY    64  61  88 S3        30.17R
SILVER BAY     CLOUDY    64  61  88 CALM      30.17S
$$
MNZ029>031-032-039>041-046>048-054>057-064-281800-
   West Central Minnesota

CITY           SKY/WX    TMP DP  RH WIND       PRES   REMARKS
FERGUS FALLS   SUNNY     75  63  64 SE15      30.06S
WHEATON        SUNNY     81  68  65 SE18G25   30.03F
MORRIS         SUNNY     81  63  54 SE12      30.04F
ALEXANDRIA     SUNNY     73  64  73 SE8       30.09F
ELBOW LAKE     FAIR      75  65  71 E13       30.06S
WADENA         MOSUNNY   72  63  73 SE9       30.09F
GLENWOOD       SUNNY     73  64  73 SE8       30.10S
APPLETON       SUNNY     79  66  65 S14G20    30.05F
BENSON         SUNNY     79  66  65 S15G22    30.06F
ORTONVILLE     SUNNY     77  66  69 S12G22    30.04F
MADISON        SUNNY     77  66  69 SE21      30.06F
WILLMAR        FAIR      79  72  78 S6        30.09S
$$
MNZ033>034-036-042>043-049>051-058-059-281800-
   Central Minnesota

CITY           SKY/WX    TMP DP  RH WIND       PRES   REMARKS
ST CLOUD       CLOUDY    68  67  96 E8        30.12F
SAUK CENTRE    FAIR      72  65  80 SE8       30.10S
PAYNESVILLE    CLOUDY    71  68  90 SE6       30.11S
AITKIN         PTSUNNY   73  63  68 S8        30.14R
PINE RIVER     SUNNY     72  63  73 SE12      30.15S
BRAINERD       MOSUNNY   74  64  71 SE9       30.12F
STAPLES        SUNNY     72  61  68 SE7       30.10F
LONG PRAIRIE   FAIR      72  63  73 E9        30.11S
LITTLE FALLS   MOSUNNY   72  63  73 SE9       30.11F
LITCHFIELD     CLOUDY    81  73  78 S7        30.10F
BUFFALO        CLOUDY    70  68  93 E6        30.13F
MAPLE LAKE     CLOUDY    69  69  99 SE5       30.13F FOG
HUTCHINSON     SUNNY     79  72  77 S10G18    30.12S
$$
MNZ037-044-045-052-053-281800-
   East Central Minnesota

CITY           SKY/WX    TMP DP  RH WIND       PRES   REMARKS
PRINCETON      CLOUDY    68  66  94 E6        30.14F FOG
MORA           CLOUDY    68  63  83 SE5       30.17S
CAMBRIDGE      CLOUDY    68  66  94 SE5       30.14S
RUSH CITY      RAIN      67  66  96 SE5       30.16F
MOOSE LAKE     CLOUDY    68  61  77 SE5       30.16S
HINCKLEY       CLOUDY    68  64  88 E7        30.17S
CLOQUET        CLOUDY    66  61  82 SE7       30.18S
MCGREGOR       PTSUNNY   70  63  78 SE8       30.16S
$$
MNZ071>073-080-081-089-090-097-098-281800-
   Southwest Minnesota

CITY           SKY/WX    TMP DP  RH WIND       PRES   REMARKS
MONTEVIDEO     SUNNY     79  72  78 SW12G20   30.09F
GRANITE FALLS  SUNNY     79  71  76 SE15      30.10F
CANBY          PTSUNNY   76  69  78 SE15      30.09F
MARSHALL       SUNNY     75  69  81 SE15      30.10F
REDWOOD FALLS  SUNNY     77  69  76 S15       30.10F
OLIVIA         SUNNY     77  68  73 S12       30.09F
PIPESTONE      SUNNY     79  72  78 S14       30.10F
WINDOM         PTSUNNY   79  70  73 SE7       30.14F
WORTHINGTON    SUNNY     80  72  76 SE9       30.13F
JACKSON          N/A     81  68  65 SE6       30.15S
TRACY          MOSUNNY   78  72  80 SE10G16   30.12F
SLAYTON        PTSUNNY   77  72  83 SE10      30.13F
$$
MNZ065>067-074>077-082>085-091>093-281800-
   South Central Minnesota

CITY           SKY/WX    TMP DP  RH WIND       PRES   REMARKS
MANKATO        MOSUNNY   79  70  73 S8        30.14F
NEW ULM        SUNNY     79  72  78 S9        30.12F
ST JAMES       SUNNY     73  66  78 SE8       30.15F
FAIRMONT       PTSUNNY   79  71  76 SE10      30.16S
GLENCOE        SUNNY     78  73  82 S10G16    30.11F
FARIBAULT      MOSUNNY   81  70  69 SE10      30.16F
OWATONNA       SUNNY     79  68  69 S8        30.17F
WASECA         PTSUNNY   77  70  78 SE7       30.17F
ALBERT LEA     MOSUNNY   79  70  73 S8        30.18S
$$
MNZ078>079-086>088-094>096-281800-
   Southeast Minnesota

CITY           SKY/WX    TMP DP  RH WIND       PRES   REMARKS
ROCHESTER      PTSUNNY   78  69  73 S7        30.20S
RED WING       SUNNY     75  70  83 SE8       30.15F
DODGE CENTER   MOSUNNY   81  68  65 S8        30.19F
WINONA         MOSUNNY   73  68  83 SE7       30.20F
AUSTIN         PTSUNNY   75  70  83 SE5       30.19F
PRESTON        CLOUDY    74  67  77 SE5       30.22R
$$
ABBREVIATIONS USED IN REMARKS
   TC - TEMPERATURES IN CELSIUS
  WCI - WIND CHILL INDEX
   HX - HEAT INDEX
  VSB - VISIBILITY
$$




USA.gov is the U.S. government's official web portal to all federal, state and local government web resources and services.